Location: Pedimozza
(42.0500°N, 9.3500°E)
Time: 08:42:40
(UTC+00:00)

Unknown - Pass Details

Date: 19 August 2019
Orbit: 548 x 551 km, 53.0° (Epoch: 15 September)

Event Time Altitude Azimuth Distance (km) Brightness Sun altitude
Rises 19:08:34 0° 309° (NW) 2,724 9.1 -9.5°
Reaches altitude 10° 19:10:52 10° 315° (NW) 1,828 7.6 -9.9°
Maximum altitude 19:14:55 49° 31° (NNE) 713 4.2 -10.6°
Enters shadow 19:18:07 15° 103° (ESE) 1,513 5.2 -11.1°
